datetime,storage
1969-05-14,34681.0
1969-05-15,34737.0
1969-05-16,34840.0
1969-05-17,34840.0
1969-05-18,34893.0
1969-05-19,34999.0
1969-05-20,35105.0
1969-05-21,35321.0
1969-05-22,35428.0
1969-05-23,35536.0
1969-05-24,35536.0
1969-05-25,35482.0
1969-05-26,35428.0
1969-05-27,35698.0
1969-05-28,35860.0
1969-05-29,36075.0
1969-05-30,36457.0
1969-05-31,36731.0
1969-06-01,36950.0
1969-06-02,37109.0
1969-06-03,37279.0
1969-06-04,37502.0
1969-06-05,37725.0
1969-06-06,38003.0
1969-06-07,38003.0
1969-06-08,38170.0
1969-06-09,38337.0
1969-06-10,38506.0
1969-06-11,38619.0
1969-06-12,38676.0
1969-06-13,38732.0
1969-06-14,38902.0
1969-06-15,39072.0
1969-06-16,39185.0
1969-06-17,39298.0
1969-06-18,39365.0
1969-06-19,39524.0
1969-06-20,39639.0
1969-06-21,39697.0
1969-06-22,39697.0
1969-06-23,39754.0
1969-06-24,39869.0
1969-06-25,40041.0
1969-06-26,40099.0
1969-06-27,40156.0
1969-06-28,40270.0
1969-06-29,40385.0
1969-06-30,40443.0
1969-07-01,40443.0
1969-07-02,40500.0
1969-07-03,40558.0
1969-07-04,40615.0
1969-07-05,40673.0
1969-07-06,40790.0
1969-07-07,40790.0
1969-07-08,40790.0
1969-07-09,40790.0
1969-07-10,40731.0
1969-07-11,40673.0
1969-07-12,40673.0
1969-07-13,40673.0
1969-07-14,40558.0
1969-07-15,40558.0
1969-07-16,40558.0
1969-07-17,40500.0
1969-07-18,40385.0
1969-07-19,40213.0
1969-07-20,40270.0
1969-07-21,40270.0
1969-07-22,40270.0
1969-07-23,40328.0
1969-07-24,40328.0
1969-07-25,40328.0
1969-07-26,40328.0
1969-07-27,40328.0
1969-07-28,40328.0
1969-07-29,40328.0
1969-07-30,40213.0
1969-07-31,39984.0
1969-08-01,39754.0
1969-08-02,39581.0
1969-08-03,39411.0
1969-08-04,39298.0
1969-08-05,39129.0
1969-08-06,38959.0
1969-08-07,38789.0
1969-08-08,38563.0
1969-08-09,38338.0
1969-08-10,38170.0
1969-08-11,37947.0
1969-08-12,37781.0
1969-08-13,37669.0
1969-08-14,37502.0
1969-08-15,37279.0
1969-08-16,37060.0
1969-08-17,36950.0
1969-08-18,36895.0
1969-08-19,36786.0
1969-08-20,36621.0
1969-08-21,36457.0
1969-08-22,36293.0
1969-08-23,36129.0
1969-08-24,35967.0
1969-08-25,35806.0
1969-08-26,35590.0
1969-08-27,35428.0
1969-08-28,35267.0
1969-08-29,35105.0
1969-08-30,35105.0
1969-08-31,35105.0
1969-09-01,35105.0
1969-09-02,35105.0
1969-09-03,35105.0
1969-09-04,35105.0
1969-09-05,35105.0
1969-09-06,35158.0
1969-09-07,35158.0
1969-09-08,35158.0
1969-09-09,35158.0
1969-09-10,35213.0
1969-09-11,35213.0
1969-09-12,35213.0
1969-09-13,35213.0
1969-09-14,35213.0
1969-09-15,35213.0
1969-09-16,35213.0
1969-09-17,35213.0
1969-09-18,35213.0
1969-09-19,35267.0
1969-09-20,35267.0
1969-09-21,35267.0
1969-09-22,35213.0
1969-09-23,35213.0
1969-09-24,35159.0
1969-09-25,35105.0
1969-09-26,35105.0
1969-09-27,35052.0
1969-09-28,35052.0
1969-09-29,34999.0
1969-09-30,34999.0
1969-10-01,35052.0
1969-10-02,35052.0
1969-10-03,35052.0
1969-10-04,35105.0
1969-10-05,35105.0
1969-10-06,35105.0
1969-10-07,35213.0
1969-10-08,35213.0
1969-10-09,35213.0
1969-10-10,35267.0
1969-10-11,35321.0
1969-10-12,35321.0
1969-10-13,35321.0
1969-10-14,35375.0
1969-10-15,35428.0
1969-10-16,35428.0
1969-10-17,35482.0
1969-10-18,35536.0
1969-10-19,35590.0
1969-10-20,35590.0
1969-10-21,35590.0
1969-10-22,35644.0
1969-10-23,35644.0
1969-10-24,35644.0
1969-10-25,35644.0
1969-10-26,35698.0
1969-10-27,35698.0
1969-10-28,35698.0
1969-10-29,35752.0
1969-10-30,35752.0
1969-10-31,35806.0
1969-11-01,35914.0
1969-11-02,35967.0
1969-11-03,35967.0
1969-11-04,35967.0
1969-11-05,35967.0
1969-11-06,36021.0
1969-11-07,36129.0
1969-11-08,36183.0
1969-11-09,36238.0
1969-11-10,36293.0
1969-11-11,36347.0
1969-11-12,36457.0
1969-11-13,36512.0
1969-11-14,36621.0
1969-11-15,36621.0
1969-11-16,36731.0
1969-11-17,36841.0
1969-11-18,36841.0
1969-11-19,36950.0
1969-11-20,36950.0
1969-11-21,37060.0
1969-11-22,37169.0
1969-11-23,37169.0
1969-11-24,37279.0
1969-11-25,37334.0
1969-11-26,37390.0
1969-11-27,37502.0
1969-11-28,37558.0
1969-11-29,37613.0
1969-11-30,37669.0
1969-12-01,37781.0
1969-12-02,37836.0
1969-12-03,37892.0
1969-12-04,37947.0
1969-12-05,38059.0
1969-12-06,38170.0
1969-12-07,38226.0
1969-12-08,38282.0
1969-12-09,38338.0
1969-12-10,38393.0
1969-12-11,38506.0
1969-12-12,38562.0
1969-12-13,38619.0
1969-12-14,38732.0
1969-12-15,38788.0
1969-12-16,38845.0
1969-12-17,38845.0
1969-12-18,38959.0
1969-12-19,39072.0
1969-12-20,39185.0
1969-12-21,39185.0
1969-12-22,39524.0
1969-12-23,39754.0
1969-12-24,39926.0
1969-12-25,39926.0
1969-12-26,40156.0
1969-12-27,40270.0
1969-12-28,40328.0
1969-12-29,40385.0
1969-12-30,40443.0
1969-12-31,40558.0
1970-01-01,40673.0
1970-01-02,40673.0
1970-01-03,40731.0
1970-01-04,40790.0
1970-01-05,40906.0
1970-01-06,40964.0
1970-01-07,41081.0
1970-01-08,41139.0
1970-01-09,41197.0
1970-01-10,41314.0
1970-01-11,41373.0
1970-01-12,41431.0
1970-01-13,41489.0
1970-01-14,41606.0
1970-01-15,41664.0
1970-01-16,41722.0
1970-01-17,41839.0
1970-01-18,41957.0
1970-01-19,42016.0
1970-01-20,42135.0
1970-01-21,42194.0
1970-01-22,42313.0
1970-01-23,42372.0
1970-01-24,42372.0
1970-01-25,42372.0
1970-01-26,42372.0
1970-01-27,42372.0
1970-01-28,42431.0
1970-01-29,42431.0
1970-01-30,42431.0
1970-01-31,42431.0
1970-02-01,42321.0
1970-02-02,42431.0
1970-02-03,42431.0
1970-02-04,42490.0
1970-02-05,42490.0
1970-02-06,42549.0
1970-02-07,42549.0
1970-02-08,42549.0
1970-02-09,42549.0
1970-02-10,42608.0
1970-02-11,42608.0
1970-02-12,42608.0
1970-02-13,42608.0
1970-02-14,42668.0
1970-02-15,42668.0
1970-02-16,42668.0
1970-02-17,42668.0
1970-02-18,42727.0
1970-02-19,42727.0
1970-02-20,42727.0
1970-02-21,42727.0
1970-02-22,42727.0
1970-02-23,42727.0
1970-02-24,42727.0
1970-02-25,42727.0
1970-02-26,42727.0
1970-02-27,42727.0
1970-02-28,42727.0
1970-03-01,42727.0
1970-03-02,42727.0
1970-03-03,42727.0
1970-03-04,42727.0
1970-03-05,42727.0
1970-03-06,42727.0
1970-03-07,42727.0
1970-03-08,42727.0
1970-03-09,42786.0
1970-03-10,42786.0
1970-03-11,42786.0
1970-03-12,42786.0
1970-03-13,42786.0
1970-03-14,42786.0
1970-03-15,42846.0
1970-03-16,42846.0
1970-03-17,42846.0
1970-03-18,42846.0
1970-03-19,42846.0
1970-03-20,42846.0
1970-03-21,42846.0
1970-03-22,42846.0
1970-03-23,42905.0
1970-03-24,42905.0
1970-03-25,42905.0
1970-03-26,42905.0
1970-03-27,42905.0
1970-03-28,42905.0
1970-03-29,42905.0
1970-03-30,42905.0
1970-03-31,42846.0
1970-04-01,42846.0
1970-04-02,42786.0
1970-04-03,42786.0
1970-04-04,42727.0
1970-04-05,42727.0
1970-04-06,42727.0
1970-04-07,42727.0
1970-04-08,42727.0
1970-04-09,42727.0
1970-04-10,42727.0
1970-04-11,42668.0
1970-04-12,42668.0
1970-04-13,42668.0
1970-04-14,42727.0
1970-04-15,42727.0
1970-04-16,42727.0
1970-04-17,42727.0
1970-04-18,42786.0
1970-04-19,42786.0
1970-04-20,42846.0
1970-04-21,42846.0
1970-04-22,42846.0
1970-04-23,42846.0
1970-04-24,42846.0
1970-04-25,42846.0
1970-04-26,42846.0
1970-04-27,42786.0
1970-04-28,42786.0
1970-04-29,42786.0
1970-04-30,42786.0
1970-05-01,42786.0
1970-05-02,42786.0
1970-05-03,42786.0
1970-05-04,42786.0
1970-05-05,42786.0
1970-05-06,42786.0
1970-05-07,42905.0
1970-05-08,42964.0
1970-05-09,42905.0
1970-05-10,42905.0
1970-05-11,42786.0
1970-05-12,42786.0
1970-05-13,43023.0
1970-05-14,43023.0
1970-05-15,42905.0
1970-05-16,42786.0
1970-05-17,42786.0
1970-05-18,42964.0
1970-05-19,43023.0
1970-05-20,43023.0
1970-05-21,43143.0
1970-05-22,43263.0
1970-05-23,43383.0
1970-05-24,43443.0
1970-05-25,43503.0
1970-05-26,43503.0
1970-05-27,43624.0
1970-05-28,43744.0
1970-05-29,43744.0
1970-05-30,43864.0
1970-05-31,43924.0
1970-06-01,44104.0
1970-06-02,44284.0
1970-06-03,44524.0
1970-06-04,44954.0
1970-06-05,45319.0
1970-06-06,45441.0
1970-06-07,45564.0
1970-06-08,45749.0
1970-06-09,45872.0
1970-06-10,45934.0
1970-06-11,45995.0
1970-06-12,45872.0
1970-06-13,45811.0
1970-06-14,45811.0
1970-06-15,45872.0
1970-06-16,45934.0
1970-06-17,45934.0
1970-06-18,45934.0
1970-06-19,46057.0
1970-06-20,45995.0
1970-06-21,46057.0
1970-06-22,46057.0
1970-06-23,46057.0
1970-06-24,46052.0
1970-06-25,46052.0
1970-06-26,46052.0
1970-06-27,46119.0
1970-06-28,46057.0
1970-06-29,45995.0
1970-06-30,45934.0
1970-07-01,45811.0
1970-07-02,45687.0
1970-07-03,45687.0
1970-07-04,45811.0
1970-07-05,45687.0
1970-07-06,45564.0
1970-07-07,45441.0
1970-07-08,45380.0
1970-07-09,45319.0
1970-07-10,45198.0
1970-07-11,45015.0
1970-07-12,44833.0
1970-07-13,44589.0
1970-07-14,44467.0
1970-07-15,44407.0
1970-07-16,44346.0
1970-07-17,44285.0
1970-07-18,44104.0
1970-07-19,43924.0
1970-07-20,43744.0
1970-07-21,43443.0
1970-07-22,43323.0
1970-07-23,43263.0
1970-07-24,43143.0
1970-07-25,43023.0
1970-07-26,43023.0
1970-07-27,42964.0
1970-07-28,42964.0
1970-07-29,42905.0
1970-07-30,42668.0
1970-07-31,42431.0
1970-08-01,42194.0
1970-08-02,41839.0
1970-08-03,41606.0
1970-08-04,41373.0
1970-08-05,41139.0
1970-08-06,40906.0
1970-08-07,40616.0
1970-08-08,40386.0
1970-08-09,40099.0
1970-08-10,39811.0
1970-08-11,39468.0
1970-08-12,39241.0
1970-08-13,38902.0
1970-08-14,38676.0
1970-08-15,38282.0
1970-08-16,38059.0
1970-08-17,37836.0
1970-08-18,37613.0
1970-08-19,37390.0
1970-08-20,37169.0
1970-08-21,36895.0
1970-08-22,36402.0
1970-08-23,36402.0
1970-08-24,36129.0
1970-08-25,36021.0
1970-08-26,35914.0
1970-08-27,35806.0
1970-08-28,35698.0
1970-08-29,35644.0
1970-08-30,35267.0
1970-08-31,34946.0
1970-09-01,34628.0
1970-09-02,34362.0
1970-09-03,34310.0
1970-09-04,34416.0
1970-09-05,34575.0
1970-09-06,34787.0
1970-09-07,34893.0
1970-09-08,34999.0
1970-09-09,35105.0
1970-09-10,35213.0
1970-09-11,35321.0
1970-09-12,35428.0
1970-09-13,35590.0
1970-09-14,35752.0
1970-09-15,35914.0
1970-09-16,35967.0
1970-09-17,36021.0
1970-09-18,36129.0
1970-09-19,36293.0
1970-09-20,36402.0
1970-09-21,36512.0
1970-09-22,36731.0
1970-09-23,36841.0
1970-09-24,36950.0
1970-09-25,37060.0
1970-09-26,37169.0
1970-09-27,37279.0
1970-09-28,37390.0
1970-09-29,37502.0
1970-09-30,37613.0
1970-10-01,37780.0
1970-10-02,37892.0
1970-10-03,38003.0
1970-10-04,38170.0
1970-10-05,38282.0
1970-10-06,38393.0
1970-10-07,38506.0
1970-10-08,38732.0
1970-10-09,38845.0
1970-10-10,38845.0
1970-10-11,38845.0
1970-10-12,39411.0
1970-10-13,39582.0
1970-10-14,39754.0
1970-10-15,39869.0
1970-10-16,39984.0
1970-10-17,39984.0
1970-10-18,39984.0
1970-10-19,40501.0
1970-10-20,40673.0
1970-10-21,40848.0
1970-10-22,41023.0
1970-10-23,41198.0
1970-10-24,41198.0
1970-10-25,41198.0
1970-10-26,41722.0
1970-10-27,41839.0
1970-10-28,42017.0
1970-10-29,42135.0
1970-10-30,42253.0
1970-10-31,42253.0
1970-11-01,42253.0
1970-11-02,42668.0
1970-11-03,42786.0
1970-11-04,42964.0
1970-11-05,43083.0
1970-11-06,43263.0
1970-11-07,43263.0
1970-11-08,43263.0
1970-11-09,43684.0
1970-11-10,43804.0
1970-11-11,43804.0
1970-11-12,44104.0
1970-11-13,44224.0
1970-11-14,44224.0
1970-11-15,44224.0
1970-11-16,44589.0
1970-11-17,44711.0
1970-11-18,44833.0
1970-11-19,44954.0
1970-11-20,45076.0
1970-11-21,45076.0
1970-11-22,45076.0
1970-11-23,45503.0
1970-11-24,45626.0
1970-11-25,45749.0
1970-11-26,45749.0
1970-11-27,45995.0
1970-11-28,45995.0
1970-11-29,45995.0
1970-11-30,46303.0
1970-12-01,46427.0
1970-12-02,46488.0
1970-12-03,46550.0
1970-12-04,46550.0
1970-12-05,46550.0
1970-12-06,46550.0
1970-12-07,46242.0
1970-12-08,46242.0
1970-12-09,46242.0
1970-12-10,46242.0
1970-12-11,46242.0
1970-12-12,46242.0
1970-12-13,46242.0
1970-12-14,46180.0
1970-12-15,46180.0
1970-12-16,46180.0
1970-12-17,46180.0
1970-12-18,46180.0
1970-12-19,46180.0
1970-12-20,46180.0
1970-12-21,46242.0
1970-12-22,46242.0
1970-12-23,46303.0
1970-12-24,46303.0
1970-12-25,46303.0
1970-12-26,46303.0
1970-12-27,46303.0
1970-12-28,46365.0
1970-12-29,46365.0
1970-12-30,46365.0
1970-12-31,46365.0
1971-01-01,46365.0
1971-01-02,46365.0
1971-01-03,46365.0
1971-01-04,46365.0
1971-01-05,46365.0
1971-01-06,46427.0
1971-01-07,46427.0
1971-01-08,46427.0
1971-01-09,46427.0
1971-01-10,46427.0
1971-01-11,46427.0
1971-01-12,46427.0
1971-01-13,46427.0
1971-01-14,46427.0
1971-01-15,46427.0
1971-01-16,46427.0
1971-01-17,46427.0
1971-01-18,46427.0
1971-01-19,46427.0
1971-01-20,46427.0
1971-01-21,46427.0
1971-01-22,46427.0
1971-01-23,46427.0
1971-01-24,46427.0
1971-01-25,46365.0
1971-01-26,46427.0
1971-01-27,46427.0
1971-01-28,46427.0
1971-01-29,46365.0
1971-01-30,46365.0
1971-01-31,46365.0
1971-02-01,46303.0
1971-02-02,46365.0
1971-02-03,46427.0
1971-02-04,46550.0
1971-02-05,46673.0
1971-02-06,46673.0
1971-02-07,46673.0
1971-02-08,47046.0
1971-02-09,47171.0
1971-02-10,47357.0
1971-02-11,47606.0
1971-02-12,47793.0
1971-02-13,47793.0
1971-02-14,47793.0
1971-02-15,47793.0
1971-02-16,48482.0
1971-02-17,48608.0
1971-02-18,48796.0
1971-02-19,48927.0
1971-02-20,48927.0
1971-02-21,48927.0
1971-02-22,49427.0
1971-02-23,49553.0
1971-02-24,49680.0
1971-02-25,49870.0
1971-02-26,50061.0
1971-02-27,50061.0
1971-02-28,50061.0
1971-03-01,50124.0
1971-03-02,50187.0
1971-03-03,50251.0
1971-03-04,50314.0
1971-03-05,50441.0
1971-03-06,50441.0
1971-03-07,50441.0
1971-03-08,50569.0
1971-03-09,50633.0
1971-03-10,50761.0
1971-03-11,50825.0
1971-03-12,50889.0
1971-03-13,50889.0
1971-03-14,50889.0
1971-03-15,51145.0
1971-03-16,51273.0
1971-03-17,51337.0
1971-03-18,51401.0
1971-03-19,51465.0
1971-03-20,51465.0
1971-03-21,51465.0
1971-03-22,51657.0
1971-03-23,51721.0
1971-03-24,51850.0
1971-03-25,51915.0
1971-03-26,51980.0
1971-03-27,51980.0
1971-03-28,51980.0
1971-03-29,51980.0
1971-03-30,51980.0
1971-03-31,52044.0
1971-04-01,52109.0
1971-04-02,52174.0
1971-04-03,52174.0
1971-04-04,52174.0
1971-04-05,52303.0
1971-04-06,52303.0
1971-04-07,52368.0
1971-04-08,52497.0
1971-04-09,52562.0
1971-04-10,52562.0
1971-04-11,52562.0
1971-04-12,52626.0
1971-04-13,52686.0
1971-04-14,52691.0
1971-04-15,52626.0
1971-04-16,52497.0
1971-04-17,52368.0
1971-04-18,52368.0
1971-04-19,52238.0
1971-04-20,52174.0
1971-04-21,52980.0
1971-04-22,51915.0
1971-04-23,51850.0
1971-04-24,51850.0
1971-04-25,51850.0
1971-04-26,51465.0
1971-04-27,51465.0
1971-04-28,51529.0
1971-04-29,51465.0
1971-04-30,51401.0
1971-05-01,51401.0
1971-05-02,51401.0
1971-05-03,51401.0
1971-05-04,51401.0
1971-05-05,51401.0
1971-05-06,51337.0
1971-05-07,51337.0
1971-05-08,51337.0
1971-05-09,51337.0
1971-05-10,51337.0
1971-05-11,51337.0
1971-05-12,51273.0
1971-05-13,51145.0
1971-05-14,51081.0
1971-05-15,51081.0
1971-05-16,51081.0
1971-05-17,51273.0
1971-05-18,51657.0
1971-05-19,51980.0
1971-05-20,52368.0
1971-05-21,52691.0
1971-05-22,52691.0
1971-05-23,52691.0
1971-05-24,53232.0
1971-05-25,54124.0
1971-05-26,54386.0
1971-05-27,54782.0
1971-05-28,55442.0
1971-05-29,55442.0
1971-05-30,55442.0
1971-05-31,55442.0
1971-06-01,57513.0
1971-06-02,57985.0
1971-06-03,58458.0
1971-06-04,58935.0
1971-06-05,58935.0
1971-06-06,59958.0
1971-06-07,60026.0
1971-06-08,60026.0
1971-06-09,60026.0
1971-06-10,60026.0
1971-06-11,59958.0
1971-06-12,59958.0
1971-06-13,59958.0
1971-06-14,59820.0
1971-06-15,59889.0
1971-06-16,60095.0
1971-06-17,60370.0
1971-06-18,60576.0
1971-06-19,60576.0
1971-06-20,60576.0
1971-06-21,61333.0
1971-06-22,61680.0
1971-06-23,61957.0
1971-06-24,62234.0
1971-06-25,62512.0
1971-06-26,62512.0
1971-06-27,62512.0
1971-06-28,63141.0
1971-06-29,63281.0
1971-06-30,63281.0
1971-07-01,63281.0
1971-07-02,63281.0
1971-07-03,63281.0
1971-07-04,63281.0
1971-07-05,63281.0
1971-07-06,63141.0
1971-07-07,63211.0
1971-07-08,63071.0
1971-07-09,62931.0
1971-07-10,62931.0
1971-07-11,62931.0
1971-07-12,62442.0
1971-07-13,62234.0
1971-07-14,62026.0
1971-07-15,61818.0
1971-07-16,61610.0
1971-07-17,61610.0
1971-07-18,61610.0
1971-07-19,60919.0
1971-07-20,60781.0
1971-07-21,60644.0
1971-07-22,60576.0
1971-07-23,60507.0
1971-07-24,60507.0
1971-07-25,60507.0
1971-07-26,60095.0
1971-07-27,59958.0
1971-07-28,59820.0
1971-07-29,59615.0
1971-07-30,59683.0
1971-07-31,59683.0
1971-08-01,59683.0
1971-08-02,59889.0
1971-08-03,59958.0
1971-08-04,60095.0
1971-08-05,60095.0
1971-08-06,60095.0
1971-08-07,60095.0
1971-08-08,59958.0
1971-08-09,59958.0
1971-08-10,59958.0
1971-08-11,59889.0
1971-08-12,59820.0
1971-08-13,59752.0
1971-08-14,59752.0
1971-08-15,59752.0
1971-08-16,59752.0
1971-08-17,59683.0
1971-08-18,59615.0
1971-08-19,59547.0
1971-08-20,59479.0
1971-08-21,59139.0
1971-08-22,59139.0
1971-08-23,58458.0
1971-08-24,58458.0
1971-08-25,58322.0
1971-08-26,58187.0
1971-08-27,58187.0
1971-08-28,58187.0
1971-08-29,58187.0
1971-08-30,57985.0
1971-08-31,58052.0
1971-09-01,58052.0
1971-09-02,58052.0
1971-09-03,58052.0
1971-09-04,58052.0
1971-09-05,58052.0
1971-09-06,58052.0
1971-09-07,58120.0
1971-09-08,58187.0
1971-09-09,58120.0
1971-09-10,58052.0
1971-09-11,58052.0
1971-09-12,58052.0
1971-09-13,57715.0
1971-09-14,57715.0
1971-09-15,57715.0
1971-09-16,57648.0
1971-09-17,57648.0
1971-09-18,57648.0
1971-09-19,57648.0
1971-09-20,57715.0
1971-09-21,57648.0
1971-09-22,57648.0
1971-09-23,57648.0
1971-09-24,57648.0
1971-09-25,57648.0
1971-09-26,57648.0
1971-09-27,57446.0
1971-09-28,57378.0
1971-09-29,57244.0
1971-09-30,57176.0
1971-10-01,57176.0
1971-10-02,57176.0
1971-10-03,57176.0
1971-10-04,57244.0
1971-10-05,57311.0
1971-10-06,57311.0
1971-10-07,57311.0
1971-10-08,57244.0
1971-10-09,57244.0
1971-10-10,57244.0
1971-10-11,57244.0
1971-10-12,57176.0
1971-10-13,57109.0
1971-10-14,57109.0
1971-10-15,57109.0
1971-10-16,57109.0
1971-10-17,57109.0
1971-10-18,57109.0
1971-10-19,57109.0
1971-10-20,57109.0
1971-10-21,57109.0
1971-10-22,57109.0
1971-10-23,57109.0
1971-10-24,57109.0
1971-10-25,57109.0
1971-10-26,57109.0
1971-10-27,57109.0
1971-10-28,57109.0
1971-10-29,57176.0
1971-10-30,57176.0
1971-10-31,57176.0
1971-11-01,57244.0
1971-11-02,57244.0
1971-11-03,57244.0
1971-11-04,57244.0
1971-11-05,57244.0
1971-11-06,57244.0
1971-11-07,57244.0
1971-11-08,57244.0
1971-11-09,57244.0
1971-11-10,57244.0
1971-11-11,57244.0
1971-11-12,57244.0
1971-11-13,57244.0
1971-11-14,57244.0
1971-11-15,57311.0
1971-11-16,57311.0
1971-11-17,57311.0
1971-11-18,57311.0
1971-11-19,57311.0
1971-11-20,57311.0
1971-11-21,57311.0
1971-11-22,57176.0
1971-11-23,57176.0
1971-11-24,57176.0
1971-11-25,57176.0
1971-11-26,57176.0
1971-11-27,57176.0
1971-11-28,57176.0
1971-11-29,57176.0
1971-11-30,57244.0
1971-12-01,57244.0
1971-12-02,57311.0
1971-12-03,57311.0
1971-12-04,57311.0
1971-12-05,57311.0
1971-12-06,57378.0
1971-12-07,57378.0
1971-12-08,57446.0
1971-12-09,57446.0
1971-12-10,57446.0
1971-12-11,57446.0
1971-12-12,57446.0
1971-12-13,57513.0
1971-12-14,57513.0
1971-12-15,57581.0
1971-12-16,57581.0
1971-12-17,57581.0
1971-12-18,57581.0
1971-12-19,57581.0
1971-12-20,57648.0
1971-12-21,57648.0
1971-12-22,57715.0
1971-12-23,57715.0
1971-12-24,57715.0
1971-12-25,57715.0
1971-12-26,57715.0
1971-12-27,57783.0
1971-12-28,57783.0
1971-12-29,57850.0
1971-12-30,57850.0
1971-12-31,57850.0
1972-01-01,57900.0
1972-01-02,57950.0
1972-01-03,57985.0
1972-01-04,58025.0
1972-01-05,58052.0
1972-01-06,58052.0
1972-01-07,58052.0
1972-01-08,58085.0
1972-01-09,58125.0
1972-01-10,58187.0
1972-01-11,58187.0
1972-01-12,58187.0
1972-01-13,58322.0
1972-01-14,58322.0
1972-01-15,58350.0
1972-01-16,58372.0
1972-01-17,58390.0
1972-01-18,58390.0
1972-01-19,58458.0
1972-01-20,58458.0
1972-01-21,58458.0
1972-01-22,58475.0
1972-01-23,58501.0
1972-01-24,58526.0
1972-01-25,58594.0
1972-01-26,58662.0
1972-01-27,58662.0
1972-01-28,58662.0
1972-01-29,58685.0
1972-01-30,58705.0
1972-01-31,58730.0
1972-02-01,58730.0
1972-02-02,58730.0
1972-02-03,58730.0
1972-02-04,58662.0
1972-02-05,58690.0
1972-02-06,58710.0
1972-02-07,58730.0
1972-02-08,58730.0
1972-02-09,58730.0
1972-02-10,58730.0
1972-02-11,58730.0
1972-02-12,58780.0
1972-02-13,58840.0
1972-02-14,58866.0
1972-02-15,58866.0
1972-02-16,58866.0
1972-02-17,58866.0
1972-02-18,58866.0
1972-02-19,58866.0
1972-02-20,58866.0
1972-02-21,58866.0
1972-02-22,58866.0
1972-02-23,58866.0
1972-02-24,58866.0
1972-02-25,58866.0
1972-02-26,58820.0
1972-02-27,58770.0
1972-02-28,58730.0
1972-02-29,58730.0
1972-03-01,58730.0
1972-03-02,58730.0
1972-03-03,58798.0
1972-03-04,58850.0
1972-03-05,58900.0
1972-03-06,58935.0
1972-03-07,58935.0
1972-03-08,58935.0
1972-03-09,58935.0
1972-03-10,58935.0
1972-03-11,58935.0
1972-03-12,58935.0
1972-03-13,58935.0
1972-03-14,58935.0
1972-03-15,59003.0
1972-03-16,59003.0
1972-03-17,59003.0
1972-03-18,59003.0
1972-03-19,59003.0
1972-03-20,59003.0
1972-03-21,59003.0
1972-03-22,59003.0
1972-03-23,59003.0
1972-03-24,59003.0
1972-03-25,59020.0
1972-03-26,59045.0
1972-03-27,59071.0
1972-03-28,59071.0
1972-03-29,59071.0
1972-03-30,59071.0
1972-03-31,59071.0
1972-04-01,59071.0
1972-04-02,59071.0
1972-04-03,59071.0
1972-04-04,59071.0
1972-04-05,59071.0
1972-04-06,59071.0
1972-04-07,59071.0
1972-04-08,59003.0
1972-04-09,58475.0
1972-04-10,58458.0
1972-04-11,58187.0
1972-04-12,57918.0
1972-04-13,57648.0
1972-04-14,57800.0
1972-04-15,56974.0
1972-04-16,56641.0
1972-04-17,56641.0
1972-04-18,56574.0
1972-04-19,56574.0
1972-04-20,56574.0
1972-04-21,56574.0
1972-04-22,56574.0
1972-04-23,56574.0
1972-04-24,56574.0
1972-04-25,56574.0
1972-04-26,56574.0
1972-04-27,56507.0
1972-04-28,56440.0
1972-04-29,56420.0
1972-04-30,56390.0
1972-05-01,56374.0
1972-05-02,56374.0
1972-05-03,56307.0
1972-05-04,56374.0
1972-05-05,56374.0
1972-05-06,56374.0
1972-05-07,56307.0
1972-05-08,56240.0
1972-05-09,56107.0
1972-05-10,55974.0
1972-05-11,55907.0
1972-05-12,55840.0
1972-05-13,55773.0
1972-05-14,55707.0
1972-05-15,55640.0
1972-05-16,55574.0
1972-05-17,55574.0
1972-05-18,55574.0
1972-05-19,55707.0
1972-05-20,55773.0
1972-05-21,55907.0
1972-05-22,56307.0
1972-05-23,56374.0
1972-05-24,56507.0
1972-05-25,56841.0
1972-05-26,57244.0
1972-05-27,57783.0
1972-05-28,57918.0
1972-05-29,58322.0
1972-05-30,58730.0
1972-05-31,59343.0
1972-06-01,59958.0
1972-06-02,60713.0
1972-06-03,61541.0
1972-06-04,62512.0
1972-06-05,63560.0
1972-06-06,64687.0
1972-06-07,65821.0
1972-06-08,66964.0
1972-06-09,67972.0
1972-06-10,68844.0
1972-06-11,69718.0
1972-06-12,70747.0
1972-06-13,71635.0
1972-06-14,72526.0
1972-06-15,72200.0
1972-06-16,73949.0
1972-06-17,74780.0
1972-06-18,75535.0
1972-06-19,76220.0
1972-06-20,76906.0
1972-06-21,77365.0
1972-06-22,77902.0
1972-06-23,78362.0
1972-06-24,78901.0
1972-06-25,79520.0
1972-06-26,79906.0
1972-06-27,80138.0
1972-06-28,80371.0
1972-06-29,80605.0
1972-06-30,80760.0
1972-07-01,81072.0
1972-07-02,81227.0
1972-07-03,81461.0
1972-07-04,81616.0
1972-07-05,81772.0
1972-07-06,81929.0
1972-07-07,82086.0
1972-07-08,82164.0
1972-07-09,82320.0
1972-07-10,82399.0
1972-07-11,82477.0
1972-07-12,82477.0
1972-07-13,82477.0
1972-07-14,82477.0
1972-07-15,82320.0
1972-07-16,82242.0
1972-07-17,82007.0
1972-07-18,81694.0
1972-07-19,81538.0
1972-07-20,81227.0
1972-07-21,80838.0
1972-07-22,80527.0
1972-07-23,80294.0
1972-07-24,79983.0
1972-07-25,79674.0
1972-07-26,79056.0
1972-07-27,78515.0
1972-07-28,77978.0
1972-07-29,77442.0
1972-07-30,76830.0
1972-07-31,76144.0
1972-08-01,75384.0
1972-08-02,74704.0
1972-08-03,73874.0
1972-08-04,73125.0
1972-08-05,72378.0
1972-08-06,71635.0
1972-08-07,70233.0
1972-08-08,70894.0
1972-08-09,69865.0
1972-08-10,69498.0
1972-08-11,69135.0
1972-08-12,68625.0
1972-08-13,67972.0
1972-08-14,67396.0
1972-08-15,66748.0
1972-08-16,66177.0
1972-08-17,65536.0
1972-08-18,65039.0
1972-08-19,64757.0
1972-08-20,64404.0
1972-08-21,64193.0
1972-08-22,63421.0
1972-08-23,62722.0
1972-08-24,62026.0
1972-08-25,61195.0
1972-08-26,60507.0
1972-08-27,59820.0
1972-08-28,59139.0
1972-08-29,58458.0
1972-08-30,57783.0
1972-08-31,57244.0
1972-09-01,57109.0
1972-09-02,56907.0
1972-09-03,56574.0
1972-09-04,
1972-09-05,56040.0
1972-09-06,55840.0
1972-09-07,55707.0
1972-09-08,55508.0
1972-09-09,55310.0
1972-09-10,55112.0
1972-09-11,54980.0
1972-09-12,54782.0
1972-09-13,54650.0
1972-09-14,54452.0
1972-09-15,54255.0
1972-09-16,54059.0
1972-09-17,53928.0
1972-09-18,53732.0
1972-09-19,53536.0
1972-09-20,53471.0
1972-09-21,53341.0
1972-09-22,53210.0
1972-09-23,53079.0
1972-09-24,52949.0
1972-09-25,52820.0
1972-09-26,52691.0
1972-09-27,52497.0
1972-09-28,52368.0
1972-09-29,52238.0
1972-09-30,52044.0
1972-10-01,51915.0
1972-10-02,51786.0
1972-10-03,51593.0
1972-10-04,51465.0
1972-10-05,51337.0
1972-10-06,51145.0
1972-10-07,50953.0
1972-10-08,50825.0
1972-10-09,50659.0
1972-10-10,50505.0
1972-10-11,50378.0
1972-10-12,50187.0
1972-10-13,50061.0
1972-10-14,49870.0
1972-10-15,49680.0
1972-10-16,49617.0
1972-10-17,49427.0
1972-10-18,49300.0
1972-10-19,49110.0
1972-10-20,48985.0
1972-10-21,48859.0
1972-10-22,48671.0
1972-10-23,48521.0
1972-10-24,48419.0
1972-10-25,48231.0
1972-10-26,48043.0